YAOGAN 4

导读

YAOGAN 4(遥感四号)是中国于2008年12月1日发射的遥感卫星。作为中国遥感系列卫星的重要成员,它主要用于国土测绘、环境监测、灾害评估等领域,搭载了先进的光学遥感载荷,可获取高分辨率地面影像,为国民经济建设和科学研究提供数据支撑,推动了中国遥感应用体系的发展,提升了空间对地观测能力,在资源调查、防灾减灾等方面发挥了重要作用。

基本信息
目录编号:
33446
目录名称:
YAOGAN 4
国际标识:
2008-061A
轨道中心:
EARTH
卫星名称:
YAOGAN 4
卫星全名:
--
卫星状态:
在轨 (已飞行6493 天)
发射日期:
2008-12-01 UTC
国别 :
中国 (CN)
星等 :
--
该卫星已列入 空间交会检测服务 Space Conjunction Data Service (SCDS) ,当前飞行风险评估等级: 无高风险
轨道信息
数据来源 国际轨道数据
星历时间: 2026-09-11T15:30:45+0800
8小时前
查看轨道信息
半长轴: 6996.949km
偏心率: 0.0014941
轨道倾角: 97.932°
近地点辐角 145.118°
升交点赤经 187.200°
平近点角 215.102°
近地点: 608.357km
远地点: 629.267km
周期: 97.078分钟
每日圈数: 14.833367
详细信息
使用方式:
暂无
2D轨道图
3D轨道图
轨道高度分析图
轨道倾角分析图
轨道综合分析图
查看轨道综合分析图
交会数据列表
事件ID 空间交会对象 最接近时刻(TCA) 交会距离 交会风险概率(CRP) 交会风险指数(CRI) 操作
CDM_260912-141603-344606-928726
YAOGAN 4 (33446)
2026-09-12T
14:16:38+0000
1.175 km
极远距离
1.530472E-5 中风险 0.59
CDM_260913-142003-344605-891523
YAOGAN 4 (33446)
2026-09-13T
14:20:01+0000
1.209 km
极远距离
1.254697E-5 中风险 0.57
CDM_260914-045303-344606-713821
YAOGAN 4 (33446)
2026-09-14T
04:53:27+0000
1.804 km
极远距离
3.313881E-6 低风险 0.45
CDM_260913-160203-344606-960322
YAOGAN 4 (33446)
2026-09-13T
16:02:16+0000
2.465 km
极远距离
1.766057E-6 低风险 0.4
与全量物体交会距离演化趋势
与全量物体交会风险概率演化趋势